When you browse on this site, cookies collect data to enhance your experience and personalize the content and advertising you see.
Visit our Privacy Policy to learn more. By continuing to use the site, you agree to this use of cookies and data.
  • In Hungary
  • List of Countries
  • For 7 days
  • Water Temperature
  • Weather Map
  • News
  • Weather Widgets
  • user-avatar
    Login

    Hourly Weather Miejsce

    Today, 23 September, Monday

    Time Temperature Precipitation Wind Pressure Humidity
    00:00 +13°C° 0 mm 2 mps 747 mmHg 61%
    01:00 +13°C° 0 mm 2 mps 747 mmHg 64%
    02:00 +13°C° 0 mm 2 mps 747 mmHg 66%
    03:00 +12°C° 0 mm 2 mps 747 mmHg 67%
    04:00 +12°C° 0 mm 2 mps 746 mmHg 69%
    05:00 +13°C° 0 mm 2 mps 747 mmHg 70%
    06:00 +13°C° 0 mm 2 mps 747 mmHg 72%
    07:00 +14°C° 0 mm 2 mps 747 mmHg 71%
    08:00 +16°C° 0 mm 3 mps 747 mmHg 64%
    09:00 +18°C° 0 mm 3 mps 747 mmHg 58%
    10:00 +20°C° 0 mm 4 mps 747 mmHg 51%
    11:00 +21°C° 0 mm 4 mps 747 mmHg 48%
    12:00 +22°C° 0 mm 4 mps 747 mmHg 45%
    13:00 +23°C° 0 mm 4 mps 747 mmHg 42%
    14:00 +23°C° 0 mm 4 mps 747 mmHg 44%
    15:00 +22°C° 0 mm 3 mps 747 mmHg 46%
    16:00 +22°C° 0 mm 3 mps 746 mmHg 48%
    17:00 +20°C° 0 mm 3 mps 747 mmHg 53%
    18:00 +18°C° 0 mm 3 mps 747 mmHg 58%
    19:00 +16°C° 0 mm 3 mps 747 mmHg 63%
    20:00 +16°C° 0 mm 3 mps 747 mmHg 65%
    21:00 +14°C° 0 mm 3 mps 747 mmHg 68%
    22:00 +15°C° 0 mm 2 mps 747 mmHg 70%
    23:00 +14°C° 0 mm 2 mps 748 mmHg 72%

    Tomorrow, 24 September, Tuesday

    Time Temperature Precipitation Wind Pressure Humidity
    00:00 +14°C° 0 mm 2 mps 748 mmHg 74%
    01:00 +13°C° 0 mm 2 mps 748 mmHg 77%
    02:00 +13°C° 0 mm 2 mps 748 mmHg 79%
    03:00 +13°C° 0 mm 2 mps 748 mmHg 81%
    04:00 +12°C° 0 mm 2 mps 747 mmHg 83%
    05:00 +13°C° 0 mm 2 mps 747 mmHg 83%
    06:00 +13°C° 0 mm 2 mps 747 mmHg 82%
    07:00 +14°C° 0 mm 2 mps 747 mmHg 81%
    08:00 +15°C° 0 mm 1 mps 747 mmHg 74%
    09:00 +18°C° 0 mm 1 mps 747 mmHg 67%
    10:00 +20°C° 0 mm 1 mps 747 mmHg 60%
    11:00 +21°C° 0 mm 1 mps 747 mmHg 56%
    12:00 +21°C° 0 mm 2 mps 747 mmHg 51%
    13:00 +23°C° 0 mm 2 mps 746 mmHg 47%
    14:00 +23°C° 0 mm 2 mps 746 mmHg 46%
    15:00 +23°C° 0 mm 2 mps 746 mmHg 46%
    16:00 +23°C° 0 mm 2 mps 745 mmHg 45%
    17:00 +21°C° 0 mm 2 mps 745 mmHg 50%
    18:00 +19°C° 0 mm 2 mps 745 mmHg 54%
    19:00 +17°C° 0 mm 3 mps 745 mmHg 59%
    20:00 +17°C° 0 mm 3 mps 745 mmHg 62%
    21:00 +16°C° 0 mm 3 mps 745 mmHg 65%
    22:00 +16°C° 0 mm 3 mps 745 mmHg 68%
    23:00 +15°C° 0.1 mm 2 mps 745 mmHg 70%

    Day after tomorrow, 25 September, Wednesday

    Time Temperature Precipitation Wind Pressure Humidity
    00:00 +15°C° 0.1 mm 2 mps 744 mmHg 72%
    01:00 +15°C° 0.1 mm 2 mps 744 mmHg 74%
    02:00 +15°C° 0.2 mm 2 mps 744 mmHg 76%
    03:00 +15°C° 0.2 mm 2 mps 743 mmHg 78%
    04:00 +16°C° 0.2 mm 2 mps 743 mmHg 79%
    05:00 +15°C° 0.3 mm 2 mps 743 mmHg 82%
    06:00 +15°C° 0.3 mm 2 mps 743 mmHg 85%
    07:00 +15°C° 0.3 mm 2 mps 743 mmHg 88%
    08:00 +16°C° 0.2 mm 2 mps 743 mmHg 87%
    09:00 +16°C° 0.2 mm 2 mps 743 mmHg 86%
    10:00 +16°C° 0.2 mm 3 mps 743 mmHg 85%
    11:00 +17°C° 0.1 mm 3 mps 743 mmHg 78%
    12:00 +19°C° 0.1 mm 4 mps 742 mmHg 71%
    13:00 +20°C° 0.1 mm 4 mps 742 mmHg 64%
    14:00 +20°C° 0.2 mm 4 mps 742 mmHg 65%
    15:00 +20°C° 0.2 mm 3 mps 742 mmHg 66%
    16:00 +19°C° 0.2 mm 3 mps 742 mmHg 67%
    17:00 +18°C° 0.2 mm 3 mps 742 mmHg 72%
    18:00 +17°C° 0.2 mm 2 mps 742 mmHg 77%
    19:00 +16°C° 0.2 mm 2 mps 742 mmHg 82%
    20:00 +15°C° 0.2 mm 2 mps 742 mmHg 83%
    21:00 +14°C° 0.2 mm 3 mps 743 mmHg 85%
    22:00 +13°C° 0.2 mm 3 mps 743 mmHg 86%
    23:00 +13°C° 0 mm 3 mps 743 mmHg 86%

    26 September, Thursday

    Time Temperature Precipitation Wind Pressure Humidity
    00:00 +13°C° 0 mm 3 mps 743 mmHg 86%
    01:00 +12°C° 0 mm 3 mps 743 mmHg 86%
    02:00 +12°C° 0 mm 3 mps 743 mmHg 87%
    03:00 +12°C° 0 mm 3 mps 743 mmHg 87%
    04:00 +11°C° 0 mm 3 mps 744 mmHg 88%
    05:00 +12°C° 0 mm 3 mps 744 mmHg 87%
    06:00 +12°C° 0 mm 3 mps 744 mmHg 86%
    07:00 +12°C° 0 mm 3 mps 744 mmHg 85%
    08:00 +13°C° 0.1 mm 3 mps 745 mmHg 82%
    09:00 +14°C° 0.1 mm 3 mps 745 mmHg 80%
    10:00 +14°C° 0.1 mm 3 mps 746 mmHg 77%
    11:00 +16°C° 0.1 mm 3 mps 746 mmHg 74%
    12:00 +17°C° 0.1 mm 3 mps 746 mmHg 71%
    13:00 +18°C° 0.1 mm 3 mps 746 mmHg 68%
    14:00 +18°C° 0.1 mm 3 mps 746 mmHg 66%
    15:00 +18°C° 0.1 mm 3 mps 746 mmHg 65%
    16:00 +19°C° 0.1 mm 3 mps 746 mmHg 63%
    17:00 +17°C° 0 mm 2 mps 746 mmHg 68%
    18:00 +16°C° 0 mm 1 mps 746 mmHg 74%
    19:00 +15°C° 0 mm 1 mps 747 mmHg 79%
    20:00 +14°C° 0 mm 1 mps 747 mmHg 81%
    21:00 +14°C° 0 mm 1 mps 747 mmHg 82%
    22:00 +14°C° 0 mm 2 mps 748 mmHg 83%
    23:00 +13°C° 0 mm 2 mps 748 mmHg 85%

    27 September, Friday

    Time Temperature Precipitation Wind Pressure Humidity
    00:00 +13°C° 0 mm 1 mps 748 mmHg 87%
    01:00 +13°C° 0 mm 1 mps 748 mmHg 89%
    02:00 +12°C° 0 mm 1 mps 748 mmHg 89%
    03:00 +12°C° 0 mm 1 mps 748 mmHg 90%
    04:00 +12°C° 0 mm 1 mps 748 mmHg 91%
    05:00 +12°C° 0 mm 2 mps 748 mmHg 89%
    06:00 +13°C° 0 mm 2 mps 748 mmHg 88%
    07:00 +13°C° 0 mm 2 mps 748 mmHg 86%
    08:00 +15°C° 0 mm 2 mps 748 mmHg 79%
    09:00 +17°C° 0 mm 2 mps 748 mmHg 71%
    10:00 +19°C° 0 mm 3 mps 748 mmHg 64%
    11:00 +19°C° 0 mm 3 mps 748 mmHg 65%
    12:00 +19°C° 0 mm 3 mps 748 mmHg 65%
    13:00 +20°C° 0 mm 3 mps 747 mmHg 66%
    14:00 +19°C° 0 mm 3 mps 747 mmHg 70%
    15:00 +18°C° 0 mm 2 mps 747 mmHg 74%
    16:00 +18°C° 0 mm 2 mps 747 mmHg 77%
    17:00 +18°C° 0 mm 2 mps 747 mmHg 79%
    18:00 +17°C° 0 mm 2 mps 747 mmHg 80%
    19:00 +17°C° 0 mm 3 mps 747 mmHg 81%
    20:00 +17°C° 0.3 mm 3 mps 747 mmHg 83%
    21:00 +16°C° 0.3 mm 3 mps 747 mmHg 84%
    22:00 +16°C° 0.3 mm 3 mps 747 mmHg 85%
    23:00 +16°C° 0.1 mm 3 mps 747 mmHg 85%

    28 September, Saturday

    Time Temperature Precipitation Wind Pressure Humidity
    00:00 +16°C° 0.1 mm 2 mps 747 mmHg 85%
    01:00 +16°C° 0.1 mm 2 mps 747 mmHg 85%
    02:00 +16°C° 0 mm 2 mps 747 mmHg 87%
    03:00 +15°C° 0 mm 2 mps 747 mmHg 89%
    04:00 +14°C° 0 mm 2 mps 747 mmHg 91%
    05:00 +15°C° 0 mm 2 mps 747 mmHg 90%
    06:00 +15°C° 0 mm 2 mps 747 mmHg 89%
    07:00 +15°C° 0 mm 2 mps 747 mmHg 88%
    08:00 +16°C° 0 mm 3 mps 747 mmHg 82%
    09:00 +18°C° 0 mm 4 mps 748 mmHg 75%
    10:00 +19°C° 0 mm 5 mps 748 mmHg 68%
    11:00 +20°C° 0.3 mm 5 mps 748 mmHg 67%
    12:00 +20°C° 0.3 mm 6 mps 747 mmHg 65%
    13:00 +20°C° 0.3 mm 6 mps 747 mmHg 64%
    14:00 +20°C° 0.2 mm 6 mps 747 mmHg 63%
    15:00 +20°C° 0.2 mm 5 mps 747 mmHg 62%
    16:00 +20°C° 0.2 mm 5 mps 747 mmHg 61%
    17:00 +18°C° 0 mm 4 mps 747 mmHg 66%
    18:00 +16°C° 0 mm 3 mps 747 mmHg 70%
    19:00 +14°C° 0 mm 3 mps 748 mmHg 74%
    20:00 +13°C° 0 mm 3 mps 748 mmHg 74%
    21:00 +13°C° 0 mm 3 mps 748 mmHg 75%
    22:00 +12°C° 0 mm 3 mps 748 mmHg 75%
    23:00 +12°C° 0 mm 3 mps 748 mmHg 76%
    Show more